Location: Poigny-la-Forêt
(48.6876°N, 1.7701°E)
Time: 06:08:56
(UTC+02:00)

ISS - Pass Details

Date: 27 May 2019
Orbit: 408 x 418 km, 51.6° (Epoch: 18 June)

Event Time Altitude Azimuth Distance (km) Brightness Sun altitude
Rises 23:18:52 0° 287° (WNW) 2,356 1.0 -12.2°
Reaches altitude 10° 23:20:59 10° 291° (WNW) 1,494 -0.1 -12.4°
Maximum altitude 23:24:18 61° 13° (NNE) 479 -3.3 -12.8°
Enters shadow 23:27:21 12° 94° (E) 1,386 -1.5 -13.0°
